Time,TemperatureF,DewpointF,PressureIn,WindDirection,WindDirectionDegrees,WindSpeedMPH,WindSpeedGustMPH,Humidity,HourlyPrecipIn,Conditions,Clouds,dailyrainin,SoftwareType,DateUTC
2013-04-17 00:02:00,32.5,27.3,30.27,North,0,1.0,3.0,81,0.00,,,0.01,meteohub,2013-04-17 07:02:00,
2013-04-17 00:07:00,32.4,27.5,30.27,South,180,2.0,3.0,82,0.00,,,0.00,meteohub,2013-04-17 07:07:00,
2013-04-17 00:12:00,32.2,27.3,30.27,East,90,1.0,3.0,82,0.00,,,0.00,meteohub,2013-04-17 07:12:00,
2013-04-17 00:17:00,32.2,27.3,30.27,NW,315,1.0,2.0,82,0.00,,,0.00,meteohub,2013-04-17 07:17:00,
2013-04-17 00:22:00,32.0,27.1,30.28,West,270,1.0,2.0,82,0.00,,,0.00,meteohub,2013-04-17 07:22:00,
2013-04-17 00:27:00,31.8,27.3,30.27,North,0,1.0,2.0,83,0.00,,,0.00,meteohub,2013-04-17 07:27:00,
2013-04-17 00:32:00,31.6,27.1,30.28,North,0,0.0,2.0,83,0.00,,,0.00,meteohub,2013-04-17 07:32:00,
2013-04-17 00:37:00,31.3,26.8,30.27,NW,315,1.0,2.0,83,0.00,,,0.00,meteohub,2013-04-17 07:37:00,
2013-04-17 00:42:00,31.1,26.6,30.27,NW,315,2.0,2.0,83,0.00,,,0.00,meteohub,2013-04-17 07:42:00,
2013-04-17 00:47:00,30.9,26.6,30.28,NW,315,2.0,2.0,84,0.00,,,0.00,meteohub,2013-04-17 07:47:00,
2013-04-17 00:52:00,30.9,26.6,30.28,West,270,2.0,2.0,84,0.00,,,0.00,meteohub,2013-04-17 07:52:00,
2013-04-17 00:57:00,30.9,26.6,30.28,NW,315,1.0,3.0,84,0.00,,,0.00,meteohub,2013-04-17 07:57:00,
2013-04-17 01:02:00,30.6,26.2,30.28,NW,315,0.0,3.0,84,0.00,,,0.00,meteohub,2013-04-17 08:02:00,
2013-04-17 01:07:00,30.4,26.1,30.28,NW,315,0.0,3.0,84,0.00,,,0.00,meteohub,2013-04-17 08:07:00,
2013-04-17 01:12:00,30.2,25.9,30.27,NE,45,0.0,2.0,84,0.00,,,0.00,meteohub,2013-04-17 08:12:00,
2013-04-17 01:17:00,29.8,25.9,30.28,NE,45,0.0,1.0,85,0.00,,,0.00,meteohub,2013-04-17 08:17:00,
2013-04-17 01:22:00,29.5,25.5,30.28,SE,135,2.0,2.0,85,0.00,,,0.00,meteohub,2013-04-17 08:22:00,
2013-04-17 01:27:00,29.3,25.3,30.27,West,270,1.0,2.0,85,0.00,,,0.00,meteohub,2013-04-17 08:27:00,
2013-04-17 01:32:00,29.1,25.2,30.28,SW,225,2.0,2.0,85,0.00,,,0.00,meteohub,2013-04-17 08:32:00,
2013-04-17 01:37:00,29.1,25.2,30.27,South,180,1.0,2.0,85,0.00,,,0.00,meteohub,2013-04-17 08:37:00,
2013-04-17 01:42:00,29.1,25.5,30.27,SW,225,1.0,2.0,86,0.00,,,0.00,meteohub,2013-04-17 08:42:00,
2013-04-17 01:47:00,29.1,25.5,30.28,SW,225,1.0,2.0,86,0.00,,,0.00,meteohub,2013-04-17 08:47:00,
2013-04-17 01:52:00,28.9,25.3,30.28,SW,225,0.0,2.0,86,0.00,,,0.00,meteohub,2013-04-17 08:52:00,
2013-04-17 01:57:00,28.8,25.2,30.28,SW,225,0.0,1.0,86,0.00,,,0.00,meteohub,2013-04-17 08:57:00,
2013-04-17 02:02:00,28.6,25.0,30.28,South,180,1.0,1.0,86,0.00,,,0.00,meteohub,2013-04-17 09:02:00,
2013-04-17 02:07:00,28.4,24.8,30.28,SW,225,2.0,2.0,86,0.00,,,0.00,meteohub,2013-04-17 09:07:00,
2013-04-17 02:12:00,28.2,23.4,30.28,SW,225,0.0,2.0,82,0.00,,,0.00,meteohub,2013-04-17 09:12:00,
2013-04-17 02:17:00,28.0,23.2,30.28,SW,225,0.0,2.0,82,0.00,,,0.00,meteohub,2013-04-17 09:17:00,
2013-04-17 02:22:00,27.9,23.0,30.27,SW,225,0.0,2.0,82,0.00,,,0.00,meteohub,2013-04-17 09:22:00,
2013-04-17 02:27:00,27.7,22.8,30.28,SW,225,0.0,0.0,82,0.00,,,0.00,meteohub,2013-04-17 09:27:00,
2013-04-17 02:32:00,27.5,22.8,30.27,SW,225,0.0,0.0,82,0.00,,,0.00,meteohub,2013-04-17 09:32:00,
2013-04-17 02:37:00,27.1,22.5,30.27,SW,225,0.0,0.0,82,0.00,,,0.00,meteohub,2013-04-17 09:37:00,
2013-04-17 02:42:00,27.0,22.3,30.27,SW,225,0.0,0.0,82,0.00,,,0.00,meteohub,2013-04-17 09:42:00,
2013-04-17 02:47:00,26.8,22.1,30.27,SW,225,0.0,0.0,82,0.00,,,0.00,meteohub,2013-04-17 09:47:00,
2013-04-17 02:52:00,26.8,22.1,30.28,SW,225,1.0,0.0,82,0.00,,,0.00,meteohub,2013-04-17 09:52:00,
2013-04-17 02:57:00,26.8,22.1,30.28,SW,225,1.0,2.0,82,0.00,,,0.00,meteohub,2013-04-17 09:57:00,
2013-04-17 03:02:00,26.8,22.1,30.27,SW,225,1.0,2.0,82,0.00,,,0.00,meteohub,2013-04-17 10:02:00,
2013-04-17 03:07:00,26.6,22.1,30.28,SW,225,0.0,2.0,83,0.00,,,0.00,meteohub,2013-04-17 10:07:00,
2013-04-17 03:12:00,26.4,22.3,30.27,SW,225,0.0,1.0,84,0.00,,,0.00,meteohub,2013-04-17 10:12:00,
2013-04-17 03:17:00,26.2,22.1,30.28,SW,225,0.0,1.0,84,0.00,,,0.00,meteohub,2013-04-17 10:17:00,
2013-04-17 03:22:00,26.1,21.9,30.28,SW,225,0.0,0.0,84,0.00,,,0.00,meteohub,2013-04-17 10:22:00,
2013-04-17 03:27:00,25.9,21.7,30.28,SW,225,0.0,0.0,84,0.00,,,0.00,meteohub,2013-04-17 10:27:00,
2013-04-17 03:32:00,25.7,21.6,30.28,SW,225,0.0,0.0,84,0.00,,,0.00,meteohub,2013-04-17 10:32:00,
2013-04-17 03:37:00,25.5,21.4,30.28,SW,225,0.0,0.0,84,0.00,,,0.00,meteohub,2013-04-17 10:37:00,
2013-04-17 03:42:00,25.5,21.4,30.28,SW,225,0.0,0.0,84,0.00,,,0.00,meteohub,2013-04-17 10:42:00,
2013-04-17 03:47:00,25.3,21.2,30.28,SW,225,0.0,0.0,84,0.00,,,0.00,meteohub,2013-04-17 10:47:00,
2013-04-17 03:52:00,25.2,21.0,30.28,SW,225,0.0,0.0,84,0.00,,,0.00,meteohub,2013-04-17 10:52:00,
2013-04-17 03:57:00,25.2,21.0,30.28,SW,225,0.0,0.0,84,0.00,,,0.00,meteohub,2013-04-17 10:57:00,
2013-04-17 04:02:00,25.0,21.2,30.28,SW,225,0.0,0.0,85,0.00,,,0.00,meteohub,2013-04-17 11:02:00,
2013-04-17 04:07:00,25.0,21.2,30.28,SW,225,1.0,0.0,85,0.00,,,0.00,meteohub,2013-04-17 11:07:00,
2013-04-17 04:12:00,25.0,21.2,30.29,SW,225,0.0,1.0,85,0.00,,,0.00,meteohub,2013-04-17 11:12:00,
2013-04-17 04:17:00,24.8,21.0,30.28,SW,225,1.0,1.0,85,0.00,,,0.00,meteohub,2013-04-17 11:17:00,
2013-04-17 04:22:00,24.8,21.0,30.29,SW,225,1.0,1.0,85,0.00,,,0.00,meteohub,2013-04-17 11:22:00,
2013-04-17 04:27:00,24.6,21.0,30.29,SW,225,2.0,2.0,86,0.00,,,0.00,meteohub,2013-04-17 11:27:00,
2013-04-17 04:32:00,24.6,21.0,30.29,SW,225,1.0,2.0,86,0.00,,,0.00,meteohub,2013-04-17 11:32:00,
2013-04-17 04:37:00,24.6,21.0,30.29,SW,225,1.0,2.0,86,0.00,,,0.00,meteohub,2013-04-17 11:37:00,
2013-04-17 04:42:00,24.4,20.8,30.29,SW,225,1.0,2.0,86,0.00,,,0.00,meteohub,2013-04-17 11:42:00,
2013-04-17 04:47:00,24.3,20.7,30.29,SW,225,0.0,2.0,86,0.00,,,0.00,meteohub,2013-04-17 11:47:00,
2013-04-17 04:52:00,24.3,20.7,30.29,SW,225,1.0,2.0,86,0.00,,,0.00,meteohub,2013-04-17 11:52:00,
2013-04-17 04:58:00,24.1,20.5,30.29,SW,225,0.0,2.0,86,0.00,,,0.00,meteohub,2013-04-17 11:58:00,
2013-04-17 05:04:00,23.9,20.3,30.29,SW,225,1.0,2.0,86,0.00,,,0.00,meteohub,2013-04-17 12:04:00,
2013-04-17 05:10:00,23.9,20.3,30.29,SW,225,0.0,2.0,86,0.00,,,0.00,meteohub,2013-04-17 12:10:00,
2013-04-17 05:16:00,23.9,20.3,30.30,SW,225,0.0,2.0,86,0.00,,,0.00,meteohub,2013-04-17 12:16:00,
2013-04-17 05:22:00,23.7,20.1,30.29,SW,225,0.0,2.0,86,0.00,,,0.00,meteohub,2013-04-17 12:22:00,
2013-04-17 05:27:00,23.7,20.1,30.30,SW,225,0.0,2.0,86,0.00,,,0.00,meteohub,2013-04-17 12:27:00,
2013-04-17 05:32:00,23.5,19.9,30.30,SW,225,0.0,1.0,86,0.00,,,0.00,meteohub,2013-04-17 12:32:00,
2013-04-17 05:37:00,23.4,19.8,30.30,SW,225,0.0,1.0,86,0.00,,,0.00,meteohub,2013-04-17 12:37:00,
2013-04-17 05:42:00,23.4,19.8,30.29,SW,225,0.0,1.0,86,0.00,,,0.00,meteohub,2013-04-17 12:42:00,
2013-04-17 05:47:00,23.2,19.6,30.30,SW,225,0.0,1.0,86,0.00,,,0.00,meteohub,2013-04-17 12:47:00,
2013-04-17 05:52:00,23.2,19.6,30.30,SW,225,0.0,1.0,86,0.00,,,0.00,meteohub,2013-04-17 12:52:00,
2013-04-17 05:57:00,23.0,19.4,30.30,SW,225,0.0,1.0,86,0.00,,,0.00,meteohub,2013-04-17 12:57:00,
2013-04-17 06:02:00,23.0,19.4,30.30,SW,225,0.0,0.0,86,0.00,,,0.00,meteohub,2013-04-17 13:02:00,
2013-04-17 06:07:00,22.8,19.6,30.30,SW,225,0.0,0.0,87,0.00,,,0.00,meteohub,2013-04-17 13:07:00,
2013-04-17 06:12:00,22.8,19.6,30.30,SW,225,0.0,0.0,87,0.00,,,0.00,meteohub,2013-04-17 13:12:00,
2013-04-17 06:17:00,22.6,19.4,30.31,SW,225,1.0,0.0,87,0.00,,,0.00,meteohub,2013-04-17 13:17:00,
2013-04-17 06:22:00,22.5,19.2,30.31,SW,225,0.0,1.0,87,0.00,,,0.00,meteohub,2013-04-17 13:22:00,
2013-04-17 06:27:00,22.5,19.2,30.31,SW,225,0.0,1.0,87,0.00,,,0.00,meteohub,2013-04-17 13:27:00,
2013-04-17 06:33:00,22.1,18.9,30.31,SW,225,1.0,1.0,87,0.00,,,0.00,meteohub,2013-04-17 13:33:00,
2013-04-17 06:39:00,22.1,18.9,30.32,NE,45,2.0,2.0,87,0.00,,,0.00,meteohub,2013-04-17 13:39:00,
2013-04-17 06:45:00,22.5,19.2,30.32,East,90,2.0,2.0,87,0.00,,,0.00,meteohub,2013-04-17 13:45:00,
2013-04-17 06:51:00,22.8,19.8,30.32,East,90,1.0,2.0,88,0.00,,,0.00,meteohub,2013-04-17 13:51:00,
2013-04-17 06:57:00,23.4,20.1,30.32,East,90,2.0,2.0,87,0.00,,,0.00,meteohub,2013-04-17 13:57:00,
2013-04-17 07:02:00,24.1,21.0,30.32,East,90,2.0,2.0,88,0.00,,,0.00,meteohub,2013-04-17 14:02:00,
2013-04-17 07:07:00,24.8,21.6,30.32,East,90,2.0,2.0,87,0.00,,,0.00,meteohub,2013-04-17 14:07:00,
2013-04-17 07:12:00,25.2,21.9,30.33,East,90,2.0,2.0,87,0.00,,,0.00,meteohub,2013-04-17 14:12:00,
2013-04-17 07:17:00,25.7,22.5,30.33,East,90,2.0,2.0,87,0.00,,,0.00,meteohub,2013-04-17 14:17:00,
2013-04-17 07:22:00,26.4,23.0,30.32,East,90,2.0,2.0,87,0.00,,,0.00,meteohub,2013-04-17 14:22:00,
2013-04-17 07:27:00,27.1,23.2,30.33,East,90,2.0,2.0,85,0.00,,,0.00,meteohub,2013-04-17 14:27:00,
2013-04-17 07:32:00,27.9,23.9,30.33,NE,45,2.0,2.0,85,0.00,,,0.00,meteohub,2013-04-17 14:32:00,
2013-04-17 07:37:00,28.2,24.1,30.33,East,90,2.0,2.0,84,0.00,,,0.00,meteohub,2013-04-17 14:37:00,
2013-04-17 07:42:00,29.1,25.7,30.33,East,90,2.0,2.0,87,0.00,,,0.00,meteohub,2013-04-17 14:42:00,
2013-04-17 07:48:00,30.4,26.4,30.33,East,90,2.0,2.0,85,0.00,,,0.00,meteohub,2013-04-17 14:48:00,
2013-04-17 07:54:00,31.3,27.0,30.34,East,90,2.0,2.0,84,0.00,,,0.00,meteohub,2013-04-17 14:54:00,
2013-04-17 08:00:00,32.4,27.1,30.34,East,90,2.0,3.0,81,0.00,,,0.00,meteohub,2013-04-17 15:00:00,
2013-04-17 08:06:00,33.3,27.7,30.35,NE,45,2.0,3.0,80,0.00,,,0.00,meteohub,2013-04-17 15:06:00,
2013-04-17 08:12:00,34.2,27.3,30.34,East,90,2.0,2.0,76,0.00,,,0.00,meteohub,2013-04-17 15:12:00,
2013-04-17 08:17:00,34.7,27.3,30.34,East,90,2.0,2.0,74,0.00,,,0.00,meteohub,2013-04-17 15:17:00,
2013-04-17 08:22:00,35.4,27.7,30.34,East,90,3.0,3.0,73,0.00,,,0.00,meteohub,2013-04-17 15:22:00,
2013-04-17 08:27:00,36.0,27.1,30.34,NE,45,2.0,3.0,70,0.00,,,0.00,meteohub,2013-04-17 15:27:00,
2013-04-17 08:32:00,36.7,27.1,30.35,SW,225,2.0,3.0,68,0.00,,,0.00,meteohub,2013-04-17 15:32:00,
2013-04-17 08:37:00,36.7,26.1,30.35,SE,135,2.0,3.0,65,0.00,,,0.00,meteohub,2013-04-17 15:37:00,
2013-04-17 08:42:00,36.7,25.3,30.35,West,270,2.0,3.0,63,0.00,,,0.00,meteohub,2013-04-17 15:42:00,
2013-04-17 08:47:00,37.0,25.7,30.35,NW,315,2.0,3.0,63,0.00,,,0.00,meteohub,2013-04-17 15:47:00,
2013-04-17 08:52:00,36.9,24.3,30.35,SW,225,2.0,2.0,60,0.00,,,0.00,meteohub,2013-04-17 15:52:00,
2013-04-17 08:57:00,37.0,24.4,30.35,South,180,2.0,2.0,60,0.00,,,0.00,meteohub,2013-04-17 15:57:00,
2013-04-17 09:02:00,37.4,26.8,30.35,NE,45,1.0,2.0,65,0.00,,,0.00,meteohub,2013-04-17 16:02:00,
2013-04-17 09:07:00,37.8,27.1,30.35,SW,225,2.0,3.0,65,0.00,,,0.00,meteohub,2013-04-17 16:07:00,
2013-04-17 09:12:00,38.3,27.5,30.35,NW,315,2.0,3.0,65,0.00,,,0.00,meteohub,2013-04-17 16:12:00,
2013-04-17 09:17:00,38.8,28.0,30.35,West,270,3.0,3.0,65,0.00,,,0.00,meteohub,2013-04-17 16:17:00,
2013-04-17 09:22:00,39.0,27.1,30.35,NE,45,2.0,3.0,62,0.00,,,0.00,meteohub,2013-04-17 16:22:00,
2013-04-17 09:27:00,40.3,27.9,30.35,West,270,3.0,3.0,61,0.00,,,0.00,meteohub,2013-04-17 16:27:00,
2013-04-17 09:32:00,40.6,27.5,30.35,East,90,2.0,4.0,59,0.00,,,0.00,meteohub,2013-04-17 16:32:00,
2013-04-17 09:37:00,41.4,27.3,30.35,NW,315,4.0,4.0,57,0.00,,,0.00,meteohub,2013-04-17 16:37:00,
2013-04-17 09:42:00,41.4,25.5,30.35,South,180,2.0,4.0,53,0.00,,,0.00,meteohub,2013-04-17 16:42:00,
2013-04-17 09:47:00,41.7,26.2,30.35,West,270,2.0,4.0,54,0.00,,,0.00,meteohub,2013-04-17 16:47:00,
2013-04-17 09:52:00,42.8,26.4,30.35,West,270,3.0,4.0,52,0.00,,,0.00,meteohub,2013-04-17 16:52:00,
2013-04-17 09:57:00,42.8,25.5,30.36,WSW,248,2.0,5.0,50,0.00,,,0.00,meteohub,2013-04-17 16:57:00,
2013-04-17 10:03:00,42.8,23.4,30.35,East,90,4.0,5.0,46,0.00,,,0.00,meteohub,2013-04-17 17:03:00,
2013-04-17 10:09:00,43.7,23.7,30.35,SE,135,2.0,8.0,45,0.00,,,0.00,meteohub,2013-04-17 17:09:00,
2013-04-17 10:15:00,44.6,23.0,30.35,NW,315,3.0,8.0,42,0.00,,,0.00,meteohub,2013-04-17 17:15:00,
2013-04-17 10:22:00,44.8,22.5,30.35,East,90,2.0,7.0,41,0.00,,,0.00,meteohub,2013-04-17 17:22:00,
2013-04-17 10:27:00,44.6,21.2,30.35,SSE,158,4.0,7.0,39,0.00,,,0.00,meteohub,2013-04-17 17:27:00,
2013-04-17 10:32:00,45.5,21.4,30.35,NW,315,6.0,6.0,38,0.00,,,0.00,meteohub,2013-04-17 17:32:00,
2013-04-17 10:37:00,46.4,21.6,30.34,North,0,3.0,8.0,37,0.00,,,0.00,meteohub,2013-04-17 17:37:00,
2013-04-17 10:42:00,46.4,18.9,30.34,West,270,2.0,8.0,33,0.00,,,0.00,meteohub,2013-04-17 17:42:00,
2013-04-17 10:47:00,46.4,18.1,30.35,SW,225,2.0,8.0,32,0.00,,,0.00,meteohub,2013-04-17 17:47:00,
2013-04-17 10:52:00,46.2,14.9,30.34,NW,315,9.0,9.0,28,0.00,,,0.00,meteohub,2013-04-17 17:52:00,
2013-04-17 10:57:00,45.9,13.8,30.34,East,90,4.0,9.0,27,0.00,,,0.00,meteohub,2013-04-17 17:57:00,
2013-04-17 11:02:00,46.8,19.2,30.34,NW,315,4.0,9.0,33,0.00,,,0.00,meteohub,2013-04-17 18:02:00,
2013-04-17 11:08:00,47.5,19.0,30.34,NW,315,9.0,9.0,32,0.00,,,0.00,meteohub,2013-04-17 18:08:00,
2013-04-17 11:14:00,48.2,17.4,30.34,North,0,4.0,9.0,29,0.00,,,0.00,meteohub,2013-04-17 18:14:00,
2013-04-17 11:20:00,47.8,16.3,30.34,North,0,4.0,9.0,28,0.00,,,0.00,meteohub,2013-04-17 18:20:00,
2013-04-17 11:26:00,47.1,15.6,30.34,NNW,338,4.0,7.0,28,0.00,,,0.00,meteohub,2013-04-17 18:26:00,
2013-04-17 11:32:00,48.2,19.0,30.34,NE,45,2.0,6.0,31,0.00,,,0.00,meteohub,2013-04-17 18:32:00,
2013-04-17 11:37:00,48.6,16.9,30.34,North,0,4.0,5.0,28,0.00,,,0.00,meteohub,2013-04-17 18:37:00,
2013-04-17 11:42:00,49.1,17.4,30.34,West,270,6.0,6.0,28,0.00,,,0.00,meteohub,2013-04-17 18:42:00,
2013-04-17 11:47:00,49.5,17.8,30.34,NW,315,4.0,7.0,28,0.00,,,0.00,meteohub,2013-04-17 18:47:00,
2013-04-17 11:52:00,50.0,18.1,30.34,WNW,293,4.0,8.0,28,0.00,,,0.00,meteohub,2013-04-17 18:52:00,
2013-04-17 11:57:00,49.8,15.4,30.34,SW,225,5.0,8.0,25,0.00,,,0.00,meteohub,2013-04-17 18:57:00,
2013-04-17 12:02:00,49.5,12.2,30.34,SE,135,3.0,8.0,22,0.00,,,0.00,meteohub,2013-04-17 19:02:00,
2013-04-17 12:07:00,49.5,12.2,30.34,WSW,248,5.0,9.0,22,0.00,,,0.00,meteohub,2013-04-17 19:07:00,
2013-04-17 12:12:00,49.6,12.4,30.34,North,0,6.0,9.0,22,0.00,,,0.00,meteohub,2013-04-17 19:12:00,
2013-04-17 12:17:00,50.0,13.6,30.34,North,0,9.0,10.0,23,0.00,,,0.00,meteohub,2013-04-17 19:17:00,
2013-04-17 12:22:00,50.4,14.0,30.34,NE,45,4.0,10.0,23,0.00,,,0.00,meteohub,2013-04-17 19:22:00,
2013-04-17 12:27:00,50.0,11.7,30.34,South,180,3.0,10.0,21,0.00,,,0.00,meteohub,2013-04-17 19:27:00,
2013-04-17 12:33:00,50.5,10.9,30.33,West,270,5.0,10.0,20,0.00,,,0.00,meteohub,2013-04-17 19:33:00,
2013-04-17 12:39:00,49.8,11.5,30.33,North,0,7.0,10.0,21,0.00,,,0.00,meteohub,2013-04-17 19:39:00,
2013-04-17 12:45:00,50.5,10.9,30.34,SW,225,8.0,14.0,20,0.00,,,0.00,meteohub,2013-04-17 19:45:00,
2013-04-17 12:51:00,50.0,11.7,30.33,West,270,8.0,14.0,21,0.00,,,0.00,meteohub,2013-04-17 19:51:00,
2013-04-17 12:57:00,49.8,11.5,30.33,NE,45,12.0,12.0,21,0.00,,,0.00,meteohub,2013-04-17 19:57:00,
2013-04-17 13:02:00,49.1,10.8,30.33,North,0,11.0,13.0,21,0.00,,,0.00,meteohub,2013-04-17 20:02:00,
2013-04-17 13:07:00,49.5,10.0,30.33,North,0,4.0,13.0,20,0.00,,,0.00,meteohub,2013-04-17 20:07:00,
2013-04-17 13:12:00,50.2,10.6,30.33,North,0,5.0,12.0,20,0.00,,,0.00,meteohub,2013-04-17 20:12:00,
2013-04-17 13:17:00,50.0,10.4,30.33,NE,45,4.0,11.0,20,0.00,,,0.00,meteohub,2013-04-17 20:17:00,
2013-04-17 13:22:00,50.0,10.4,30.33,NE,45,7.0,11.0,20,0.00,,,0.00,meteohub,2013-04-17 20:22:00,
2013-04-17 13:27:00,50.0,9.3,30.33,North,0,4.0,11.0,19,0.00,,,0.00,meteohub,2013-04-17 20:27:00,
2013-04-17 13:32:00,50.0,10.4,30.33,NW,315,7.0,11.0,20,0.00,,,0.00,meteohub,2013-04-17 20:32:00,
2013-04-17 13:37:00,50.2,8.2,30.32,NE,45,3.0,11.0,18,0.00,,,0.00,meteohub,2013-04-17 20:37:00,
2013-04-17 13:42:00,50.7,9.9,30.32,North,0,15.0,15.0,19,0.00,,,0.00,meteohub,2013-04-17 20:42:00,
2013-04-17 13:47:00,50.4,9.7,30.32,East,90,10.0,15.0,19,0.00,,,0.00,meteohub,2013-04-17 20:47:00,
2013-04-17 13:52:00,50.2,9.5,30.32,NW,315,8.0,15.0,19,0.00,,,0.00,meteohub,2013-04-17 20:52:00,
2013-04-17 13:58:00,50.4,10.8,30.32,North,0,8.0,15.0,20,0.00,,,0.00,meteohub,2013-04-17 20:58:00,
2013-04-17 14:04:00,50.2,9.5,30.32,North,0,2.0,13.0,19,0.00,,,0.00,meteohub,2013-04-17 21:04:00,
2013-04-17 14:10:00,51.4,11.7,30.32,NW,315,6.0,12.0,20,0.00,,,0.00,meteohub,2013-04-17 21:10:00,
2013-04-17 14:16:00,51.4,10.6,30.31,NW,315,8.0,8.0,19,0.00,,,0.00,meteohub,2013-04-17 21:16:00,
2013-04-17 14:22:00,51.4,10.6,30.31,South,180,5.0,11.0,19,0.00,,,0.00,meteohub,2013-04-17 21:22:00,
2013-04-17 14:27:00,51.8,9.7,30.31,NE,45,9.0,11.0,18,0.00,,,0.00,meteohub,2013-04-17 21:27:00,
2013-04-17 14:32:00,52.2,11.1,30.31,WNW,293,7.0,11.0,19,0.00,,,0.00,meteohub,2013-04-17 21:32:00,
2013-04-17 14:37:00,52.7,11.7,30.31,NNE,23,7.0,10.0,19,0.00,,,0.00,meteohub,2013-04-17 21:37:00,
2013-04-17 14:42:00,52.3,11.3,30.31,North,0,4.0,12.0,19,0.00,,,0.00,meteohub,2013-04-17 21:42:00,
2013-04-17 14:47:00,52.3,10.0,30.31,North,0,11.0,12.0,18,0.00,,,0.00,meteohub,2013-04-17 21:47:00,
2013-04-17 14:52:00,51.4,10.6,30.31,NW,315,13.0,13.0,19,0.00,,,0.00,meteohub,2013-04-17 21:52:00,
2013-04-17 14:57:00,51.6,10.8,30.31,West,270,5.0,13.0,19,0.00,,,0.00,meteohub,2013-04-17 21:57:00,
2013-04-17 15:02:00,51.4,10.6,30.31,NW,315,6.0,13.0,19,0.00,,,0.00,meteohub,2013-04-17 22:02:00,
2013-04-17 15:07:00,52.0,10.9,30.31,West,270,7.0,13.0,19,0.00,,,0.00,meteohub,2013-04-17 22:07:00,
2013-04-17 15:12:00,52.7,11.7,30.31,NW,315,5.0,13.0,19,0.00,,,0.00,meteohub,2013-04-17 22:12:00,
2013-04-17 15:18:00,53.1,11.8,30.30,NE,45,8.0,8.0,19,0.00,,,0.00,meteohub,2013-04-17 22:18:00,
2013-04-17 15:24:00,52.7,10.4,30.30,North,0,8.0,8.0,18,0.00,,,0.00,meteohub,2013-04-17 22:24:00,
2013-04-17 15:31:00,52.5,10.2,30.30,North,0,5.0,10.0,18,0.00,,,0.00,meteohub,2013-04-17 22:31:00,
2013-04-17 15:37:00,52.0,9.7,30.30,NE,45,3.0,10.0,18,0.00,,,0.00,meteohub,2013-04-17 22:37:00,
2013-04-17 15:42:00,51.8,10.8,30.30,East,90,5.0,10.0,19,0.00,,,0.00,meteohub,2013-04-17 22:42:00,
2013-04-17 15:47:00,51.6,11.8,30.30,SW,225,3.0,8.0,20,0.00,,,0.00,meteohub,2013-04-17 22:47:00,
2013-04-17 15:53:00,51.4,12.7,30.30,East,90,4.0,5.0,21,0.00,,,0.00,meteohub,2013-04-17 22:53:00,
2013-04-17 15:59:00,52.3,15.6,30.30,North,0,5.0,5.0,23,0.00,,,0.00,meteohub,2013-04-17 22:59:00,
2013-04-17 16:05:00,51.8,12.0,30.30,NW,315,7.0,7.0,20,0.00,,,0.00,meteohub,2013-04-17 23:05:00,
2013-04-17 16:11:00,51.4,13.8,30.30,SW,225,3.0,8.0,22,0.00,,,0.00,meteohub,2013-04-17 23:11:00,
2013-04-17 16:17:00,52.0,16.3,30.30,South,180,2.0,8.0,24,0.00,,,0.00,meteohub,2013-04-17 23:17:00,
2013-04-17 16:22:00,52.0,16.3,30.29,SW,225,2.0,7.0,24,0.00,,,0.00,meteohub,2013-04-17 23:22:00,
2013-04-17 16:27:00,51.8,16.2,30.29,SE,135,2.0,4.0,24,0.00,,,0.00,meteohub,2013-04-17 23:27:00,
2013-04-17 16:32:00,51.8,17.1,30.29,SW,225,4.0,4.0,25,0.00,,,0.00,meteohub,2013-04-17 23:32:00,
2013-04-17 16:37:00,51.6,17.8,30.29,NE,45,2.0,4.0,26,0.00,,,0.00,meteohub,2013-04-17 23:37:00,
2013-04-17 16:42:00,51.4,17.6,30.29,NW,315,9.0,9.0,26,0.00,,,0.00,meteohub,2013-04-17 23:42:00,
2013-04-17 16:47:00,51.6,16.9,30.29,SW,225,7.0,9.0,25,0.00,,,0.00,meteohub,2013-04-17 23:47:00,
2013-04-17 16:52:00,52.3,19.4,30.29,West,270,4.0,9.0,27,0.00,,,0.00,meteohub,2013-04-17 23:52:00,
2013-04-17 16:57:00,52.3,17.6,30.29,East,90,5.0,10.0,25,0.00,,,0.00,meteohub,2013-04-17 23:57:00,
2013-04-17 17:02:00,51.8,17.1,30.29,NW,315,5.0,10.0,25,0.00,,,0.00,meteohub,2013-04-18 00:02:00,
2013-04-17 17:07:00,51.1,16.5,30.30,SW,225,4.0,10.0,25,0.00,,,0.00,meteohub,2013-04-18 00:07:00,
2013-04-17 17:12:00,50.5,16.0,30.30,NW,315,6.0,8.0,25,0.00,,,0.00,meteohub,2013-04-18 00:12:00,
2013-04-17 17:17:00,50.5,16.0,30.29,North,0,4.0,8.0,25,0.00,,,0.00,meteohub,2013-04-18 00:17:00,
2013-04-17 17:22:00,50.4,15.8,30.30,NE,45,3.0,8.0,25,0.00,,,0.00,meteohub,2013-04-18 00:22:00,
2013-04-17 17:27:00,50.2,15.6,30.30,West,270,4.0,8.0,25,0.00,,,0.00,meteohub,2013-04-18 00:27:00,
2013-04-17 17:32:00,50.2,15.6,30.30,North,0,2.0,7.0,25,0.00,,,0.00,meteohub,2013-04-18 00:32:00,
2013-04-17 17:37:00,50.4,16.7,30.30,SE,135,2.0,8.0,26,0.00,,,0.00,meteohub,2013-04-18 00:37:00,
2013-04-17 17:42:00,50.5,20.3,30.30,West,270,3.0,8.0,30,0.00,,,0.00,meteohub,2013-04-18 00:42:00,
2013-04-17 17:47:00,50.4,25.7,30.29,North,0,6.0,8.0,38,0.00,,,0.00,meteohub,2013-04-18 00:47:00,
2013-04-17 17:52:00,50.0,26.6,30.29,NW,315,5.0,9.0,40,0.00,,,0.00,meteohub,2013-04-18 00:52:00,
2013-04-17 17:57:00,49.5,26.8,30.29,North,0,4.0,10.0,41,0.00,,,0.00,meteohub,2013-04-18 00:57:00,
2013-04-17 18:02:00,49.1,27.5,30.30,SW,225,8.0,10.0,43,0.00,,,0.00,meteohub,2013-04-18 01:02:00,
2013-04-17 18:07:00,48.7,27.3,30.30,SW,225,2.0,10.0,43,0.00,,,0.00,meteohub,2013-04-18 01:07:00,
2013-04-17 18:12:00,48.7,27.9,30.29,South,180,8.0,8.0,44,0.00,,,0.00,meteohub,2013-04-18 01:12:00,
2013-04-17 18:17:00,48.6,28.2,30.30,South,180,4.0,9.0,45,0.00,,,0.00,meteohub,2013-04-18 01:17:00,
2013-04-17 18:22:00,48.2,27.9,30.30,SE,135,7.0,9.0,45,0.00,,,0.00,meteohub,2013-04-18 01:22:00,
2013-04-17 18:27:00,47.8,28.0,30.30,South,180,4.0,11.0,46,0.00,,,0.00,meteohub,2013-04-18 01:27:00,
2013-04-17 18:32:00,47.7,28.4,30.30,SE,135,4.0,11.0,47,0.00,,,0.00,meteohub,2013-04-18 01:32:00,
2013-04-17 18:37:00,47.3,28.6,30.30,South,180,6.0,8.0,48,0.00,,,0.00,meteohub,2013-04-18 01:37:00,
2013-04-17 18:42:00,47.3,28.6,30.30,WNW,293,3.0,8.0,48,0.00,,,0.00,meteohub,2013-04-18 01:42:00,
2013-04-17 18:47:00,47.1,28.4,30.30,SW,225,4.0,8.0,48,0.00,,,0.00,meteohub,2013-04-18 01:47:00,
2013-04-17 18:52:00,47.1,28.4,30.30,West,270,4.0,8.0,48,0.00,,,0.00,meteohub,2013-04-18 01:52:00,
2013-04-17 18:57:00,47.1,28.9,30.30,NE,45,4.0,46.0,49,0.00,,,0.00,meteohub,2013-04-18 01:57:00,
2013-04-17 19:02:00,46.9,28.8,30.30,South,180,3.0,46.0,49,0.00,,,0.00,meteohub,2013-04-18 02:02:00,
2013-04-17 19:07:00,46.9,28.2,30.30,West,270,4.0,6.0,48,0.00,,,0.00,meteohub,2013-04-18 02:07:00,
2013-04-17 19:13:00,46.8,28.0,30.30,SE,135,5.0,6.0,48,0.00,,,0.00,meteohub,2013-04-18 02:13:00,
2013-04-17 19:19:00,46.8,28.6,30.30,NE,45,2.0,6.0,49,0.00,,,0.00,meteohub,2013-04-18 02:19:00,
2013-04-17 19:25:00,46.8,28.6,30.30,SE,135,2.0,6.0,49,0.00,,,0.00,meteohub,2013-04-18 02:25:00,
2013-04-17 19:31:00,46.8,28.6,30.30,SE,135,4.0,6.0,49,0.00,,,0.00,meteohub,2013-04-18 02:31:00,
2013-04-17 19:37:00,46.8,29.1,30.30,NW,315,6.0,6.0,50,0.00,,,0.00,meteohub,2013-04-18 02:37:00,
2013-04-17 19:42:00,46.4,28.8,30.30,NW,315,3.0,7.0,50,0.00,,,0.00,meteohub,2013-04-18 02:42:00,
2013-04-17 19:47:00,46.2,28.6,30.30,South,180,2.0,8.0,50,0.00,,,0.00,meteohub,2013-04-18 02:47:00,
2013-04-17 19:52:00,45.9,28.8,30.30,East,90,4.0,8.0,51,0.00,,,0.00,meteohub,2013-04-18 02:52:00,
2013-04-17 19:57:00,45.7,28.6,30.30,SSW,203,6.0,8.0,51,0.00,,,0.00,meteohub,2013-04-18 02:57:00,
2013-04-17 20:02:00,45.5,28.9,30.31,South,180,3.0,8.0,52,0.00,,,0.00,meteohub,2013-04-18 03:02:00,
2013-04-17 20:08:00,45.1,28.9,30.31,SE,135,3.0,8.0,53,0.00,,,0.00,meteohub,2013-04-18 03:08:00,
2013-04-17 20:14:00,44.6,28.9,30.30,SW,225,2.0,6.0,54,0.00,,,0.00,meteohub,2013-04-18 03:14:00,
2013-04-17 20:20:00,44.1,28.9,30.31,North,0,2.0,6.0,55,0.00,,,0.00,meteohub,2013-04-18 03:20:00,
2013-04-17 20:26:00,43.7,29.1,30.31,North,0,2.0,6.0,56,0.00,,,0.00,meteohub,2013-04-18 03:26:00,
2013-04-17 20:32:00,43.2,29.3,30.32,NW,315,2.0,5.0,58,0.00,,,0.00,meteohub,2013-04-18 03:32:00,
2013-04-17 20:37:00,42.8,29.5,30.31,NW,315,4.0,5.0,59,0.00,,,0.00,meteohub,2013-04-18 03:37:00,
2013-04-17 20:42:00,42.6,29.7,30.32,NW,315,2.0,8.0,60,0.00,,,0.00,meteohub,2013-04-18 03:42:00,
2013-04-17 20:47:00,42.3,29.3,30.32,North,0,2.0,8.0,60,0.00,,,0.00,meteohub,2013-04-18 03:47:00,
2013-04-17 20:52:00,41.9,29.5,30.32,SW,225,2.0,8.0,61,0.00,,,0.00,meteohub,2013-04-18 03:52:00,
2013-04-17 20:58:00,41.5,29.1,30.32,SE,135,1.0,3.0,61,0.00,,,0.00,meteohub,2013-04-18 03:58:00,
2013-04-17 21:02:00,41.4,28.9,30.32,South,180,1.0,3.0,61,0.00,,,0.00,meteohub,2013-04-18 04:02:00,
2013-04-17 21:07:00,41.2,29.1,30.32,South,180,2.0,2.0,62,0.00,,,0.00,meteohub,2013-04-18 04:07:00,
2013-04-17 21:12:00,40.8,29.1,30.32,SE,135,1.0,2.0,63,0.00,,,0.00,meteohub,2013-04-18 04:12:00,
2013-04-17 21:17:00,40.6,29.1,30.32,NE,45,1.0,2.0,63,0.00,,,0.00,meteohub,2013-04-18 04:17:00,
2013-04-17 21:22:00,40.5,29.3,30.32,NW,315,1.0,2.0,64,0.00,,,0.00,meteohub,2013-04-18 04:22:00,
2013-04-17 21:28:00,40.1,29.3,30.33,NW,315,2.0,2.0,65,0.00,,,0.00,meteohub,2013-04-18 04:28:00,
2013-04-17 21:34:00,39.9,29.1,30.33,NW,315,2.0,4.0,65,0.00,,,0.00,meteohub,2013-04-18 04:34:00,
2013-04-17 21:40:00,39.7,28.9,30.33,NW,315,1.0,4.0,65,0.00,,,0.00,meteohub,2013-04-18 04:40:00,
2013-04-17 21:46:00,39.4,28.6,30.33,NE,45,2.0,2.0,65,0.00,,,0.00,meteohub,2013-04-18 04:46:00,
2013-04-17 21:52:00,39.0,28.9,30.33,NE,45,1.0,2.0,67,0.00,,,0.00,meteohub,2013-04-18 04:52:00,
2013-04-17 21:57:00,38.7,28.6,30.33,NE,45,0.0,2.0,67,0.00,,,0.00,meteohub,2013-04-18 04:57:00,
2013-04-17 22:02:00,38.5,28.4,30.33,NE,45,0.0,2.0,67,0.00,,,0.00,meteohub,2013-04-18 05:02:00,
2013-04-17 22:07:00,38.1,28.6,30.33,NE,45,0.0,1.0,68,0.00,,,0.00,meteohub,2013-04-18 05:07:00,
2013-04-17 22:12:00,37.8,28.2,30.33,NE,45,0.0,1.0,68,0.00,,,0.00,meteohub,2013-04-18 05:12:00,
2013-04-17 22:17:00,37.6,28.0,30.33,NE,45,1.0,0.0,68,0.00,,,0.00,meteohub,2013-04-18 05:17:00,
2013-04-17 22:22:00,37.2,26.6,30.33,NE,45,0.0,1.0,65,0.00,,,0.00,meteohub,2013-04-18 05:22:00,
2013-04-17 22:27:00,36.9,26.2,30.33,NE,45,1.0,1.0,65,0.00,,,0.00,meteohub,2013-04-18 05:27:00,
2013-04-17 22:32:00,36.7,26.4,30.33,NE,45,0.0,1.0,66,0.00,,,0.00,meteohub,2013-04-18 05:32:00,
2013-04-17 22:37:00,36.7,26.8,30.32,South,180,2.0,2.0,67,0.00,,,0.00,meteohub,2013-04-18 05:37:00,
2013-04-17 22:42:00,36.9,27.3,30.32,South,180,1.0,2.0,68,0.00,,,0.00,meteohub,2013-04-18 05:42:00,
2013-04-17 22:47:00,36.9,27.3,30.32,SW,225,2.0,2.0,68,0.00,,,0.00,meteohub,2013-04-18 05:47:00,
2013-04-17 22:52:00,37.0,27.5,30.32,SW,225,2.0,2.0,68,0.00,,,0.00,meteohub,2013-04-18 05:52:00,
2013-04-17 22:57:00,37.2,27.7,30.32,SW,225,2.0,2.0,68,0.00,,,0.00,meteohub,2013-04-18 05:57:00,
2013-04-17 23:02:00,37.2,27.7,30.32,SW,225,1.0,2.0,68,0.00,,,0.00,meteohub,2013-04-18 06:02:00,
2013-04-17 23:07:00,37.0,27.5,30.32,SW,225,2.0,2.0,68,0.00,,,0.00,meteohub,2013-04-18 06:07:00,
2013-04-17 23:12:00,36.5,27.0,30.32,SW,225,1.0,2.0,68,0.00,,,0.00,meteohub,2013-04-18 06:12:00,
2013-04-17 23:17:00,36.1,27.0,30.32,SW,225,2.0,2.0,69,0.00,,,0.00,meteohub,2013-04-18 06:17:00,
2013-04-17 23:22:00,35.8,26.6,30.32,SW,225,0.0,2.0,69,0.00,,,0.00,meteohub,2013-04-18 06:22:00,
2013-04-17 23:27:00,35.6,26.8,30.32,SW,225,0.0,2.0,70,0.00,,,0.00,meteohub,2013-04-18 06:27:00,
2013-04-17 23:32:00,35.4,27.0,30.32,SW,225,1.0,2.0,71,0.00,,,0.00,meteohub,2013-04-18 06:32:00,
2013-04-17 23:37:00,35.2,26.8,30.32,SW,225,0.0,1.0,71,0.00,,,0.00,meteohub,2013-04-18 06:37:00,
2013-04-17 23:42:00,35.1,27.0,30.32,North,0,0.0,1.0,72,0.00,,,0.00,meteohub,2013-04-18 06:42:00,
2013-04-17 23:47:00,35.1,27.0,30.32,North,0,0.0,1.0,72,0.00,,,0.00,meteohub,2013-04-18 06:47:00,
2013-04-17 23:52:00,35.1,27.3,30.32,North,0,0.0,1.0,73,0.00,,,0.00,meteohub,2013-04-18 06:52:00,
2013-04-17 23:57:00,35.1,27.3,30.32,SW,225,2.0,2.0,73,0.00,,,0.00,meteohub,2013-04-18 06:57:00,